EW6466 Weather Reports


Display with metric or nautical units.
time (UTC)temp
F
wind
direction
speed
MPH
gust
MPH
rain 1hr
in
rain 24hr
in
rain mn
in
humidity
%
barometer
mb
20260905150023 81 192 3.0 7.0 0.00 0.00 0.00 74 1012.4
20260905144524 80 201 1.0 5.0 0.00 0.00 0.00 77 1012.3
20260905143020 80 201 2.0 8.0 0.00 0.00 0.00 78 1012.2
20260905141519 78 223 1.0 5.0 0.00 0.00 0.00 83 1012.2
20260905140017 77 224 1.0 6.0 0.00 0.00 0.00 83 1012.2
20260905134518 77 224 3.0 6.0 0.00 0.00 0.00 84 1012.1
20260905133024 76 217 1.0 6.0 0.00 0.00 0.00 84 1011.9
20260905131523 75 217 2.0 4.0 0.00 0.00 0.00 85 1011.8
20260905130011 75 217 0.0 4.0 0.00 0.00 0.00 85 1011.6
20260905124510 75 217 0.0 3.0 0.00 0.00 0.00 84 1011.4
20260905123009 75 217 0.0 5.0 0.00 0.00 0.00 84 1011.4
20260905121509 75 202 0.0 2.0 0.00 0.00 0.00 84 1011.2
20260905120009 75 202 1.0 4.0 0.00 0.00 0.00 84 1011.2
20260905114508 75 202 1.0 4.0 0.00 0.00 0.00 83 1011.0
20260905113011 76 202 0.0 2.0 0.00 0.00 0.00 83 1010.9
20260905111507 76 200 0.0 4.0 0.00 0.00 0.00 83 1010.9
20260905110005 76 200 2.0 4.0 0.00 0.00 0.00 83 1011.0
20260905104504 76 202 2.0 5.0 0.00 0.00 0.00 83 1011.0
20260905103007 76 207 2.0 6.0 0.00 0.00 0.00 82 1011.0
20260905101504 76 53 1.0 6.0 0.00 0.00 0.00 82 1010.8
20260905100004 76 86 3.0 6.0 0.00 0.00 0.00 82 1010.8
20260905094503 76 202 1.0 5.0 0.00 0.00 0.00 82 1010.8
20260905093001 76 213 2.0 5.0 0.00 0.00 0.00 82 1010.9
20260905091613 76 10 1.0 4.0 0.00 0.00 0.00 81 1011.0
20260905090059 76 28 0.0 4.0 0.00 0.00 0.00 81 1011.0
20260905084600 76 287 0.0 3.0 0.00 0.00 0.00 80 1011.0
20260905083109 77 286 1.0 4.0 0.00 0.00 0.00 79 1010.7
20260905081554 77 286 1.0 8.0 0.00 0.00 0.00 78 1010.9
20260905080053 77 141 0.0 7.0 0.00 0.00 0.00 77 1010.9
20260905074550 78 158 0.0 5.0 0.00 0.00 0.00 75 1011.0
20260905073048 78 288 1.0 8.0 0.00 0.00 0.00 74 1011.3
20260905071546 78 53 0.0 3.0 0.00 0.00 0.00 72 1011.2
20260905070048 79 22 2.0 10.0 0.00 0.00 0.00 71 1011.2
20260905064542 79 44 1.0 5.0 0.00 0.00 0.00 69 1011.2
20260905063040 79 55 2.0 5.0 0.00 0.00 0.00 68 1011.4
20260905061544 80 179 1.0 8.0 0.00 0.00 0.00 67 1011.4
20260905060044 80 32 2.0 7.0 0.00 0.00 0.00 67 1011.1
20260905054602 80 229 1.0 10.0 0.00 0.00 0.00 68 1011.2
20260905053034 80 237 3.0 6.0 0.00 0.00 0.00 68 1011.1
20260905051534 81 243 1.0 7.0 0.00 0.00 0.00 67 1011.3
20260905050028 81 121 1.0 4.0 0.00 0.00 0.00 66 1011.3
20260905044530 81 27 2.0 12.0 0.00 0.00 0.00 66 1011.3
20260905043027 81 53 4.0 9.0 0.00 0.00 0.00 65 1011.3
20260905041527 81 85 3.0 9.0 0.00 0.00 0.00 65 1011.4
20260905040026 81 49 2.0 5.0 0.00 0.00 0.00 65 1011.4
20260905034526 81 51 0.0 4.0 0.00 0.00 0.00 65 1011.4
20260905033025 81 51 1.0 6.0 0.00 0.00 0.00 65 1011.2
20260905031525 81 49 2.0 5.0 0.00 0.00 0.00 65 1011.1
20260905030032 81 14 2.0 10.0 0.00 0.00 0.00 65 1010.9
20260905024524 82 25 3.0 8.0 0.00 0.00 0.00 65 1010.7
20260905023023 82 22 4.0 8.0 0.00 0.00 0.00 63 1010.4
20260905021524 82 30 3.0 5.0 0.00 0.00 0.00 61 1010.1
20260905020021 83 34 1.0 3.0 0.00 0.00 0.00 60 1010.1
20260905014520 83 35 0.0 3.0 0.00 0.00 0.00 61 1009.9
20260905013020 84 35 2.0 6.0 0.00 0.00 0.00 60 1009.9
20260905011521 84 63 3.0 9.0 0.00 0.00 0.00 58 1009.6
20260905010020 85 48 3.0 6.0 0.00 0.00 0.00 52 1009.7
20260905004520 86 34 3.0 9.0 0.00 0.00 0.00 52 1009.7
20260905003022 87 38 3.0 9.0 0.00 0.00 0.00 52 1009.7
20260905001519 87 42 1.0 6.0 0.00 0.00 0.00 51 1009.9
20260905000021 88 40 2.0 6.0 0.00 0.00 0.00 54 1009.8
20260904234516 87 96 2.0 9.0 0.00 0.00 0.00 55 1009.7
20260904233017 88 83 5.0 12.0 0.00 0.00 0.00 56 1009.5
20260904231518 88 124 4.0 9.0 0.00 0.00 0.00 51 1009.3
20260904230017 88 69 5.0 12.0 0.00 0.00 0.00 51 1009.2
20260904224514 88 106 4.0 10.0 0.00 0.00 0.00 50 1009.2
20260904223011 88 87 4.0 13.0 0.00 0.00 0.00 55 1009.1
20260904221511 89 73 3.0 11.0 0.00 0.00 0.00 58 1009.1
20260904220010 88 90 2.0 13.0 0.00 0.00 0.00 58 1009.1
20260904214509 88 122 4.0 12.0 0.00 0.00 0.00 58 1009.4
20260904213008 88 105 4.0 14.0 0.00 0.00 0.00 57 1009.4
20260904211507 88 89 3.0 13.0 0.00 0.00 0.00 57 1009.6
20260904210010 88 101 4.0 12.0 0.00 0.00 0.00 55 1009.9
20260904204506 88 71 5.0 9.0 0.00 0.00 0.00 56 1010.0
20260904203004 88 80 3.0 12.0 0.00 0.00 0.00 57 1010.2
20260904201503 88 116 7.0 15.0 0.00 0.00 0.00 56 1010.1
20260904200004 89 60 3.0 9.0 0.00 0.00 0.00 57 1010.1
20260904194502 89 73 3.0 7.0 0.00 0.00 0.00 56 1010.3
20260904193059 89 196 1.0 5.0 0.00 0.00 0.00 58 1010.3
20260904191658 88 190 2.0 8.0 0.00 0.00 0.00 59 1010.5
20260904190059 88 162 5.0 10.0 0.00 0.00 0.00 58 1010.7
20260904184604 88 201 3.0 8.0 0.00 0.00 0.00 58 1010.7
20260904183055 88 138 3.0 9.0 0.00 0.00 0.00 58 1010.9
20260904181554 87 197 3.0 9.0 0.00 0.00 0.00 60 1011.0
20260904180054 87 150 3.0 10.0 0.00 0.00 0.00 60 1011.3
20260904174553 87 110 3.0 8.0 0.00 0.00 0.00 59 1011.3
20260904173104 87 78 1.0 10.0 0.00 0.00 0.00 61 1011.4
20260904171552 88 40 2.0 11.0 0.00 0.00 0.00 60 1011.5
20260904170050 89 69 7.0 13.0 0.00 0.00 0.00 58 1011.6
20260904164550 88 140 4.0 10.0 0.00 0.00 0.00 59 1011.8
20260904163044 85 212 3.0 7.0 0.00 0.00 0.00 66 1011.8
20260904161541 84 207 2.0 8.0 0.00 0.00 0.00 68 1011.7
20260904160046 82 81 3.0 7.0 0.00 0.00 0.00 72 1011.6
20260904154539 82 32 2.0 7.0 0.00 0.00 0.00 72 1011.5
20260904153038 82 171 3.0 11.0 0.00 0.00 0.00 70 1011.5
20260904151538 83 211 4.0 10.0 0.00 0.00 0.00 69 1011.4